Year,Month,Day,Hour,Minute,Value (Times are PST for temperature in C)
2014,03,29,00,00,7.60
2014,03,29,00,01,7.60
2014,03,29,00,02,7.60
2014,03,29,00,03,7.60
2014,03,29,00,04,7.60
2014,03,29,00,05,7.60
2014,03,29,00,06,7.60
2014,03,29,00,07,7.60
2014,03,29,00,08,7.60
2014,03,29,00,09,7.60
2014,03,29,00,10,7.60
2014,03,29,00,11,7.60
2014,03,29,00,12,7.60
2014,03,29,00,13,7.60
2014,03,29,00,14,7.60
2014,03,29,00,15,7.60
2014,03,29,00,16,7.60
2014,03,29,00,17,7.60
2014,03,29,00,18,7.60
2014,03,29,00,19,7.60
2014,03,29,00,20,7.50
2014,03,29,00,21,7.50
2014,03,29,00,22,7.50
2014,03,29,00,23,7.50
2014,03,29,00,24,7.50
2014,03,29,00,25,7.50
2014,03,29,00,26,7.50
2014,03,29,00,27,7.50
2014,03,29,00,28,7.40
2014,03,29,00,29,7.40
2014,03,29,00,30,7.40
2014,03,29,00,31,7.40
2014,03,29,00,32,7.40
2014,03,29,00,33,7.40
2014,03,29,00,34,7.40
2014,03,29,00,35,7.40
2014,03,29,00,36,7.40
2014,03,29,00,37,7.30
2014,03,29,00,38,7.30
2014,03,29,00,39,7.30
2014,03,29,00,40,7.30
2014,03,29,00,41,7.30
2014,03,29,00,42,7.30
2014,03,29,00,43,7.30
2014,03,29,00,44,7.20
2014,03,29,00,45,7.20
2014,03,29,00,46,7.20
2014,03,29,00,47,7.20
2014,03,29,00,48,7.20
2014,03,29,00,49,7.20
2014,03,29,00,50,7.20
2014,03,29,00,51,7.20
2014,03,29,00,52,7.10
2014,03,29,00,53,7.10
2014,03,29,00,54,7.10
2014,03,29,00,55,7.10
2014,03,29,00,56,7.10
2014,03,29,00,57,7.10
2014,03,29,00,58,7.10
2014,03,29,00,59,7.10
2014,03,29,01,00,7.00
2014,03,29,01,01,7.00
2014,03,29,01,02,7.00
2014,03,29,01,03,7.00
2014,03,29,01,04,7.00
2014,03,29,01,05,7.00
2014,03,29,01,06,7.00
2014,03,29,01,07,6.90
2014,03,29,01,08,6.90
2014,03,29,01,09,6.90
2014,03,29,01,10,6.90
2014,03,29,01,11,6.90
2014,03,29,01,12,6.90
2014,03,29,01,13,6.80
2014,03,29,01,14,6.80
2014,03,29,01,15,6.80
2014,03,29,01,16,6.80
2014,03,29,01,17,6.80
2014,03,29,01,18,6.80
2014,03,29,01,19,6.80
2014,03,29,01,20,6.80
2014,03,29,01,21,6.80
2014,03,29,01,22,6.70
2014,03,29,01,23,6.70
2014,03,29,01,24,6.70
2014,03,29,01,25,6.70
2014,03,29,01,26,6.70
2014,03,29,01,27,6.70
2014,03,29,01,28,6.70
2014,03,29,01,29,6.70
2014,03,29,01,30,6.60
2014,03,29,01,31,6.60
2014,03,29,01,32,6.60
2014,03,29,01,33,6.60
2014,03,29,01,34,6.60
2014,03,29,01,35,6.60
2014,03,29,01,36,6.60
2014,03,29,01,37,6.60
2014,03,29,01,38,6.60
2014,03,29,01,39,6.60
2014,03,29,01,40,6.60
2014,03,29,01,41,6.60
2014,03,29,01,42,6.70
2014,03,29,01,43,6.70
2014,03,29,01,44,6.70
2014,03,29,01,45,6.70
2014,03,29,01,46,6.70
2014,03,29,01,47,6.70
2014,03,29,01,48,6.70
2014,03,29,01,49,6.80
2014,03,29,01,50,6.80
2014,03,29,01,51,6.80
2014,03,29,01,52,6.80
2014,03,29,01,53,6.80
2014,03,29,01,54,6.80
2014,03,29,01,55,6.80
2014,03,29,01,56,6.80
2014,03,29,01,57,6.90
2014,03,29,01,58,6.90
2014,03,29,01,59,6.90
2014,03,29,02,00,6.90
2014,03,29,02,01,6.90
2014,03,29,02,02,6.90
2014,03,29,02,03,6.90
2014,03,29,02,04,6.90
2014,03,29,02,05,6.90
2014,03,29,02,06,6.90
2014,03,29,02,07,6.90
2014,03,29,02,08,6.90
2014,03,29,02,09,6.90
2014,03,29,02,10,6.90
2014,03,29,02,11,6.90
2014,03,29,02,12,6.90
2014,03,29,02,13,6.90
2014,03,29,02,14,6.90
2014,03,29,02,15,6.90
2014,03,29,02,16,6.90
2014,03,29,02,17,6.90
2014,03,29,02,18,6.90
2014,03,29,02,19,6.90
2014,03,29,02,20,6.90
2014,03,29,02,21,7.00
2014,03,29,02,22,7.00
2014,03,29,02,23,7.00
2014,03,29,02,24,7.00
2014,03,29,02,25,7.00
2014,03,29,02,26,7.00
2014,03,29,02,27,7.00
2014,03,29,02,28,7.00
2014,03,29,02,29,7.00
2014,03,29,02,30,7.00
2014,03,29,02,31,7.10
2014,03,29,02,32,7.10
2014,03,29,02,33,7.10
2014,03,29,02,34,7.10
2014,03,29,02,35,7.10
2014,03,29,02,36,7.10
2014,03,29,02,37,7.10
2014,03,29,02,38,7.10
2014,03,29,02,39,7.10
2014,03,29,02,40,7.10
2014,03,29,02,41,7.10
2014,03,29,02,42,7.10
2014,03,29,02,43,7.10
2014,03,29,02,44,7.10
2014,03,29,02,45,7.10
2014,03,29,02,46,7.10
2014,03,29,02,47,7.10
2014,03,29,02,48,7.10
2014,03,29,02,49,7.10
2014,03,29,02,50,7.10
2014,03,29,02,51,7.20
2014,03,29,02,52,7.20
2014,03,29,02,53,7.20
2014,03,29,02,54,7.20
2014,03,29,02,55,7.20
2014,03,29,02,56,7.20
2014,03,29,02,57,7.20
2014,03,29,02,58,7.20
2014,03,29,02,59,7.20
2014,03,29,03,00,7.20
2014,03,29,03,01,7.20
2014,03,29,03,02,7.20
2014,03,29,03,03,7.20
2014,03,29,03,04,7.20
2014,03,29,03,05,7.20
2014,03,29,03,06,7.20
2014,03,29,03,07,7.20
2014,03,29,03,08,7.20
2014,03,29,03,09,7.20
2014,03,29,03,10,7.20
2014,03,29,03,11,7.20
2014,03,29,03,12,7.20
2014,03,29,03,13,7.20
2014,03,29,03,14,7.20
2014,03,29,03,15,7.20
2014,03,29,03,16,7.20
2014,03,29,03,17,7.20
2014,03,29,03,18,7.20
2014,03,29,03,19,7.20
2014,03,29,03,20,7.20
2014,03,29,03,21,7.20
2014,03,29,03,22,7.20
2014,03,29,03,23,7.20
2014,03,29,03,24,7.20
2014,03,29,03,25,7.20
2014,03,29,03,26,7.20
2014,03,29,03,27,7.20
2014,03,29,03,28,7.20
2014,03,29,03,29,7.20
2014,03,29,03,30,7.20
2014,03,29,03,31,7.20
2014,03,29,03,32,7.20
2014,03,29,03,33,7.20
2014,03,29,03,34,7.20
2014,03,29,03,35,7.20
2014,03,29,03,36,7.20
2014,03,29,03,37,7.20
2014,03,29,03,38,7.20
2014,03,29,03,39,7.20
2014,03,29,03,40,7.20
2014,03,29,03,41,7.20
2014,03,29,03,42,7.20
2014,03,29,03,43,7.20
2014,03,29,03,44,7.20
2014,03,29,03,45,7.20
2014,03,29,03,46,7.20
2014,03,29,03,47,7.20
2014,03,29,03,48,7.20
2014,03,29,03,49,7.20
2014,03,29,03,50,7.20
2014,03,29,03,51,7.20
2014,03,29,03,52,7.20
2014,03,29,03,53,7.20
2014,03,29,03,54,7.30
2014,03,29,03,55,7.30
2014,03,29,03,56,7.30
2014,03,29,03,57,7.30
2014,03,29,03,58,7.30
2014,03,29,03,59,7.30
2014,03,29,04,00,7.30
2014,03,29,04,01,7.30
2014,03,29,04,02,7.30
2014,03,29,04,03,7.30
2014,03,29,04,04,7.30
2014,03,29,04,05,7.30
2014,03,29,04,06,7.30
2014,03,29,04,07,7.30
2014,03,29,04,08,7.40
2014,03,29,04,09,7.40
2014,03,29,04,10,7.40
2014,03,29,04,11,7.40
2014,03,29,04,12,7.40
2014,03,29,04,13,7.40
2014,03,29,04,14,7.40
2014,03,29,04,15,7.40
2014,03,29,04,16,7.40
2014,03,29,04,17,7.40
2014,03,29,04,18,7.40
2014,03,29,04,19,7.40
2014,03,29,04,20,7.40
2014,03,29,04,21,7.40
2014,03,29,04,22,7.40
2014,03,29,04,23,7.40
2014,03,29,04,24,7.40
2014,03,29,04,25,7.30
2014,03,29,04,26,7.30
2014,03,29,04,27,7.30
2014,03,29,04,28,7.30
2014,03,29,04,29,7.30
2014,03,29,04,30,7.30
2014,03,29,04,31,7.30
2014,03,29,04,32,7.30
2014,03,29,04,33,7.30
2014,03,29,04,34,7.30
2014,03,29,04,35,7.30
2014,03,29,04,36,7.20
2014,03,29,04,37,7.20
2014,03,29,04,38,7.20
2014,03,29,04,39,7.20
2014,03,29,04,40,7.20
2014,03,29,04,41,7.20
2014,03,29,04,42,7.20
2014,03,29,04,43,7.20
2014,03,29,04,44,7.20
2014,03,29,04,45,7.10
2014,03,29,04,46,7.10
2014,03,29,04,47,7.10
2014,03,29,04,48,7.10
2014,03,29,04,49,7.10
2014,03,29,04,50,7.10
2014,03,29,04,51,7.10
2014,03,29,04,52,7.10
2014,03,29,04,53,7.10
2014,03,29,04,54,7.10
2014,03,29,04,55,7.10
2014,03,29,04,56,7.20
2014,03,29,04,57,7.20
2014,03,29,04,58,7.20
2014,03,29,04,59,7.20
2014,03,29,05,00,7.20
2014,03,29,05,01,7.20
2014,03,29,05,02,7.20
2014,03,29,05,03,7.20
2014,03,29,05,04,7.20
2014,03,29,05,05,7.20
2014,03,29,05,06,7.20
2014,03,29,05,07,7.20
2014,03,29,05,08,7.20
2014,03,29,05,09,7.30
2014,03,29,05,10,7.30
2014,03,29,05,11,7.30
2014,03,29,05,12,7.30
2014,03,29,05,13,7.30
2014,03,29,05,14,7.30
2014,03,29,05,15,7.30
2014,03,29,05,16,7.30
2014,03,29,05,17,7.30
2014,03,29,05,18,7.30
2014,03,29,05,19,7.30
2014,03,29,05,20,7.30
2014,03,29,05,21,7.30
2014,03,29,05,22,7.30
2014,03,29,05,23,7.30
2014,03,29,05,24,7.30
2014,03,29,05,25,7.30
2014,03,29,05,26,7.30
2014,03,29,05,27,7.30
2014,03,29,05,28,7.30
2014,03,29,05,29,7.30
2014,03,29,05,30,7.30
2014,03,29,05,31,7.30
2014,03,29,05,32,7.30
2014,03,29,05,33,7.30
2014,03,29,05,34,7.30
2014,03,29,05,35,7.30
2014,03,29,05,36,7.30
2014,03,29,05,37,7.30
2014,03,29,05,38,7.30
2014,03,29,05,39,7.30
2014,03,29,05,40,7.30
2014,03,29,05,41,7.30
2014,03,29,05,42,7.30
2014,03,29,05,43,7.30
2014,03,29,05,44,7.30
2014,03,29,05,45,7.30
2014,03,29,05,46,7.30
2014,03,29,05,47,7.30
2014,03,29,05,48,7.30
2014,03,29,05,49,7.30
2014,03,29,05,50,7.30
2014,03,29,05,51,7.30
2014,03,29,05,52,7.30
2014,03,29,05,53,7.30
2014,03,29,05,54,7.30
2014,03,29,05,55,7.30
2014,03,29,05,56,7.30
2014,03,29,05,57,7.30
2014,03,29,05,58,7.30
2014,03,29,05,59,7.30
2014,03,29,06,00,7.30
2014,03,29,06,01,7.30
2014,03,29,06,02,7.30
2014,03,29,06,03,7.40
2014,03,29,06,04,7.40
2014,03,29,06,05,7.40
2014,03,29,06,06,7.40
2014,03,29,06,07,7.40
2014,03,29,06,08,7.40
2014,03,29,06,09,7.40
2014,03,29,06,10,7.40
2014,03,29,06,11,7.40
2014,03,29,06,12,7.40
2014,03,29,06,13,7.40
2014,03,29,06,14,7.40
2014,03,29,06,15,7.40
2014,03,29,06,16,7.40
2014,03,29,06,17,7.40
2014,03,29,06,18,7.40
2014,03,29,06,19,7.40
2014,03,29,06,20,7.40
2014,03,29,06,21,7.40
2014,03,29,06,22,7.40
2014,03,29,06,23,7.40
2014,03,29,06,24,7.30
2014,03,29,06,25,7.30
2014,03,29,06,26,7.30
2014,03,29,06,27,7.30
2014,03,29,06,28,7.30
2014,03,29,06,29,7.30
2014,03,29,06,30,7.30
2014,03,29,06,31,7.30
2014,03,29,06,32,7.30
2014,03,29,06,33,7.20
2014,03,29,06,34,7.20
2014,03,29,06,35,7.20
2014,03,29,06,36,7.20
2014,03,29,06,37,7.20
2014,03,29,06,38,7.20
2014,03,29,06,39,7.20
2014,03,29,06,40,7.20
2014,03,29,06,41,7.10
2014,03,29,06,42,7.10
2014,03,29,06,43,7.10
2014,03,29,06,44,7.10
2014,03,29,06,45,7.10
2014,03,29,06,46,7.00
2014,03,29,06,47,7.00
2014,03,29,06,48,7.00
2014,03,29,06,49,7.00
2014,03,29,06,50,6.90
2014,03,29,06,51,6.90
2014,03,29,06,52,6.90
2014,03,29,06,53,6.90
2014,03,29,06,54,6.90
2014,03,29,06,55,6.80
2014,03,29,06,56,6.80
2014,03,29,06,57,6.80
2014,03,29,06,58,6.80
2014,03,29,06,59,6.80
2014,03,29,07,00,6.80
2014,03,29,07,01,6.80
2014,03,29,07,02,6.70
2014,03,29,07,03,6.70
2014,03,29,07,04,6.70
2014,03,29,07,05,6.70
2014,03,29,07,06,6.70
2014,03,29,07,07,6.70
2014,03,29,07,08,6.70
2014,03,29,07,09,6.70
2014,03,29,07,10,6.70
2014,03,29,07,11,6.60
2014,03,29,07,12,6.60
2014,03,29,07,13,6.60
2014,03,29,07,14,6.60
2014,03,29,07,15,6.60
2014,03,29,07,16,6.60
2014,03,29,07,17,6.60
2014,03,29,07,18,6.60
2014,03,29,07,19,6.60
2014,03,29,07,20,6.60
2014,03,29,07,21,6.60
2014,03,29,07,22,6.60
2014,03,29,07,23,6.60
2014,03,29,07,24,6.60
2014,03,29,07,25,6.60
2014,03,29,07,26,6.60
2014,03,29,07,27,6.60
2014,03,29,07,28,6.60
2014,03,29,07,29,6.60
2014,03,29,07,30,6.60
2014,03,29,07,31,6.50
2014,03,29,07,32,6.50
2014,03,29,07,33,6.50
2014,03,29,07,34,6.50
2014,03,29,07,35,6.50
2014,03,29,07,36,6.50
2014,03,29,07,37,6.50
2014,03,29,07,38,6.40
2014,03,29,07,39,6.40
2014,03,29,07,40,6.40
2014,03,29,07,41,6.40
2014,03,29,07,42,6.40
2014,03,29,07,43,6.40
2014,03,29,07,44,6.40
2014,03,29,07,45,6.40
2014,03,29,07,46,6.40
2014,03,29,07,47,6.30
2014,03,29,07,48,6.30
2014,03,29,07,49,6.30
2014,03,29,07,50,6.30
2014,03,29,07,51,6.30
2014,03,29,07,52,6.30
2014,03,29,07,53,6.30
2014,03,29,07,54,6.30
2014,03,29,07,55,6.30
2014,03,29,07,56,6.30
2014,03,29,07,57,6.30
2014,03,29,07,58,6.20
2014,03,29,07,59,6.20
2014,03,29,08,00,6.20
2014,03,29,08,01,6.20
2014,03,29,08,02,6.20
2014,03,29,08,03,6.20
2014,03,29,08,04,6.20
2014,03,29,08,05,6.20
2014,03,29,08,06,6.20
2014,03,29,08,07,6.20
2014,03,29,08,08,6.20
2014,03,29,08,09,6.20
2014,03,29,08,10,6.20
2014,03,29,08,11,6.20
2014,03,29,08,12,6.20
2014,03,29,08,13,6.20
2014,03,29,08,14,6.20
2014,03,29,08,15,6.20
2014,03,29,08,16,6.20
2014,03,29,08,17,6.20
2014,03,29,08,18,6.20
2014,03,29,08,19,6.20
2014,03,29,08,20,6.20
2014,03,29,08,21,6.20
2014,03,29,08,22,6.20
2014,03,29,08,23,6.20
2014,03,29,08,24,6.20
2014,03,29,08,25,6.20
2014,03,29,08,26,6.20
2014,03,29,08,27,6.20
2014,03,29,08,28,6.20
2014,03,29,08,29,6.20
2014,03,29,08,30,6.20
2014,03,29,08,31,6.20
2014,03,29,08,32,6.20
2014,03,29,08,33,6.20
2014,03,29,08,34,6.20
2014,03,29,08,35,6.20
2014,03,29,08,36,6.20
2014,03,29,08,37,6.20
2014,03,29,08,38,6.20
2014,03,29,08,39,6.20
2014,03,29,08,40,6.20
2014,03,29,08,41,6.20
2014,03,29,08,42,6.20
2014,03,29,08,43,6.20
2014,03,29,08,44,6.20
2014,03,29,08,45,6.20
2014,03,29,08,46,6.30
2014,03,29,08,47,6.30
2014,03,29,08,48,6.30
2014,03,29,08,49,6.30
2014,03,29,08,50,6.30
2014,03,29,08,51,6.30
2014,03,29,08,52,6.30
2014,03,29,08,53,6.30
2014,03,29,08,54,6.30
2014,03,29,08,55,6.30
2014,03,29,08,56,6.30
2014,03,29,08,57,6.30
2014,03,29,08,58,6.30
2014,03,29,08,59,6.30
2014,03,29,09,00,6.30
2014,03,29,09,01,6.30
2014,03,29,09,02,6.30
2014,03,29,09,03,6.30
2014,03,29,09,04,6.30
2014,03,29,09,05,6.30
2014,03,29,09,06,6.30
2014,03,29,09,07,6.30
2014,03,29,09,08,6.30
2014,03,29,09,09,6.30
2014,03,29,09,10,6.30
2014,03,29,09,11,6.30
2014,03,29,09,12,6.30
2014,03,29,09,13,6.30
2014,03,29,09,14,6.30
2014,03,29,09,15,6.40
2014,03,29,09,16,6.40
2014,03,29,09,17,6.40
2014,03,29,09,18,6.40
2014,03,29,09,19,6.40
2014,03,29,09,20,6.40
2014,03,29,09,21,6.40
2014,03,29,09,22,6.50
2014,03,29,09,23,6.50
2014,03,29,09,24,6.50
2014,03,29,09,25,6.50
2014,03,29,09,26,6.50
2014,03,29,09,27,6.50
2014,03,29,09,28,6.50
2014,03,29,09,29,6.60
2014,03,29,09,30,6.60
2014,03,29,09,31,6.60
2014,03,29,09,32,6.60
2014,03,29,09,33,6.60
2014,03,29,09,34,6.60
2014,03,29,09,35,6.70
2014,03,29,09,36,6.70
2014,03,29,09,37,6.70
2014,03,29,09,38,6.70
2014,03,29,09,39,6.80
2014,03,29,09,40,6.80
2014,03,29,09,41,6.80
2014,03,29,09,42,6.80
2014,03,29,09,43,6.80
2014,03,29,09,44,6.80
2014,03,29,09,45,6.80
2014,03,29,09,46,6.80
2014,03,29,09,47,6.80
2014,03,29,09,48,6.90
2014,03,29,09,49,6.90
2014,03,29,09,50,6.90
2014,03,29,09,51,6.90
2014,03,29,09,52,7.00
2014,03,29,09,53,7.00
2014,03,29,09,54,7.00
2014,03,29,09,55,7.00
2014,03,29,09,56,7.00
2014,03,29,09,57,7.00
2014,03,29,09,58,7.00
2014,03,29,09,59,7.00
2014,03,29,10,00,7.10
2014,03,29,10,01,7.10
2014,03,29,10,02,7.10
2014,03,29,10,03,7.10
2014,03,29,10,04,7.10
2014,03,29,10,05,7.10
2014,03,29,10,06,7.20
2014,03,29,10,07,7.20
2014,03,29,10,08,7.20
2014,03,29,10,09,7.20
2014,03,29,10,10,7.30
2014,03,29,10,11,7.30
2014,03,29,10,12,7.40
2014,03,29,10,13,7.40
2014,03,29,10,14,7.40
2014,03,29,10,15,7.40
2014,03,29,10,16,7.50
2014,03,29,10,17,7.50
2014,03,29,10,18,7.50
2014,03,29,10,19,7.50
2014,03,29,10,20,7.60
2014,03,29,10,21,7.60
2014,03,29,10,22,7.60
2014,03,29,10,23,7.60
2014,03,29,10,24,7.70
2014,03,29,10,25,7.70
2014,03,29,10,26,7.70
2014,03,29,10,27,7.70
2014,03,29,10,28,7.70
2014,03,29,10,29,7.70
2014,03,29,10,30,7.80
2014,03,29,10,31,7.80
2014,03,29,10,32,7.80
2014,03,29,10,33,7.80
2014,03,29,10,34,7.80
2014,03,29,10,35,7.80
2014,03,29,10,36,7.80
2014,03,29,10,37,7.80
2014,03,29,10,38,7.80
2014,03,29,10,39,7.80
2014,03,29,10,40,7.90
2014,03,29,10,41,7.90
2014,03,29,10,42,7.90
2014,03,29,10,43,7.90
2014,03,29,10,44,8.00
2014,03,29,10,45,8.00
2014,03,29,10,46,8.00
2014,03,29,10,47,8.00
2014,03,29,10,48,8.10
2014,03,29,10,49,8.10
2014,03,29,10,50,8.10
2014,03,29,10,51,8.10
2014,03,29,10,52,8.10
2014,03,29,10,53,8.10
2014,03,29,10,54,8.10
2014,03,29,10,55,8.10
2014,03,29,10,56,8.10
2014,03,29,10,57,8.10
2014,03,29,10,58,8.10
2014,03,29,10,59,8.10
2014,03,29,11,00,8.10
2014,03,29,11,01,8.10
2014,03,29,11,02,8.10
2014,03,29,11,03,8.10
2014,03,29,11,04,8.10
2014,03,29,11,05,8.10
2014,03,29,11,06,8.10
2014,03,29,11,07,8.10
2014,03,29,11,08,8.10
2014,03,29,11,09,8.10
2014,03,29,11,10,8.20
2014,03,29,11,11,8.20
2014,03,29,11,12,8.20
2014,03,29,11,13,8.20
2014,03,29,11,14,8.20
2014,03,29,11,15,8.20
2014,03,29,11,16,8.30
2014,03,29,11,17,8.30
2014,03,29,11,18,8.30
2014,03,29,11,19,8.30
2014,03,29,11,20,8.30
2014,03,29,11,21,8.30
2014,03,29,11,22,8.30
2014,03,29,11,23,8.30
2014,03,29,11,24,8.30
2014,03,29,11,25,8.30
2014,03,29,11,26,8.40
2014,03,29,11,27,8.40
2014,03,29,11,28,8.40
2014,03,29,11,29,8.40
2014,03,29,11,30,8.40
2014,03,29,11,31,8.40
2014,03,29,11,32,8.40
2014,03,29,11,33,8.50
2014,03,29,11,34,8.50
2014,03,29,11,35,8.50
2014,03,29,11,36,8.50
2014,03,29,11,37,8.50
2014,03,29,11,38,8.50
2014,03,29,11,39,8.50
2014,03,29,11,40,8.50
2014,03,29,11,41,8.50
2014,03,29,11,42,8.50
2014,03,29,11,43,8.50
2014,03,29,11,44,8.50
2014,03,29,11,45,8.50
2014,03,29,11,46,8.50
2014,03,29,11,47,8.50
2014,03,29,11,48,8.40
2014,03,29,11,49,8.40
2014,03,29,11,50,8.50
2014,03,29,11,51,8.50
2014,03,29,11,52,8.50
2014,03,29,11,53,8.50
2014,03,29,11,54,8.50
2014,03,29,11,55,8.50
2014,03,29,11,56,8.50
2014,03,29,11,57,8.50
2014,03,29,11,58,8.50
2014,03,29,11,59,8.50
2014,03,29,12,00,8.50
2014,03,29,12,01,8.50
2014,03,29,12,02,8.50
2014,03,29,12,03,8.50
2014,03,29,12,04,8.50
2014,03,29,12,05,8.50
2014,03,29,12,06,8.50
2014,03,29,12,07,8.50
2014,03,29,12,08,8.50
2014,03,29,12,09,8.50
2014,03,29,12,10,8.50
2014,03,29,12,11,8.50
2014,03,29,12,12,8.50
2014,03,29,12,13,8.50
2014,03,29,12,14,8.40
2014,03,29,12,15,8.40
2014,03,29,12,16,8.40
2014,03,29,12,17,8.40
2014,03,29,12,18,8.40
2014,03,29,12,19,8.30
2014,03,29,12,20,8.30
2014,03,29,12,21,8.30
2014,03,29,12,22,8.30
2014,03,29,12,23,8.30
2014,03,29,12,24,8.30
2014,03,29,12,25,8.30
2014,03,29,12,26,8.30
2014,03,29,12,27,8.30
2014,03,29,12,28,8.30
2014,03,29,12,29,8.30
2014,03,29,12,30,8.20
2014,03,29,12,31,8.20
2014,03,29,12,32,8.30
2014,03,29,12,33,8.30
2014,03,29,12,34,8.30
2014,03,29,12,35,8.30
2014,03,29,12,36,8.30
2014,03,29,12,37,8.30
2014,03,29,12,38,8.30
2014,03,29,12,39,8.30
2014,03,29,12,40,8.30
2014,03,29,12,41,8.40
2014,03,29,12,42,8.40
2014,03,29,12,43,8.50
2014,03,29,12,44,8.60
2014,03,29,12,45,8.60
2014,03,29,12,46,8.70
2014,03,29,12,47,8.80
2014,03,29,12,48,8.80
2014,03,29,12,49,8.90
2014,03,29,12,50,8.90
2014,03,29,12,51,8.90
2014,03,29,12,52,9.00
2014,03,29,12,53,9.00
2014,03,29,12,54,9.10
2014,03,29,12,55,9.10
2014,03,29,12,56,9.10
2014,03,29,12,57,9.20
2014,03,29,12,58,9.20
2014,03,29,12,59,9.20
2014,03,29,13,00,9.20
2014,03,29,13,01,9.30
2014,03,29,13,02,9.30
2014,03,29,13,03,9.30
2014,03,29,13,04,9.30
2014,03,29,13,05,9.30
2014,03,29,13,06,9.30
2014,03,29,13,07,9.30
2014,03,29,13,08,9.30
2014,03,29,13,09,9.30
2014,03,29,13,10,9.30
2014,03,29,13,11,9.30
2014,03,29,13,12,9.40
2014,03,29,13,13,9.40
2014,03,29,13,14,9.50
2014,03,29,13,15,9.60
2014,03,29,13,16,9.60
2014,03,29,13,17,9.60
2014,03,29,13,18,9.70
2014,03,29,13,19,9.70
2014,03,29,13,20,9.70
2014,03,29,13,21,9.80
2014,03,29,13,22,9.80
2014,03,29,13,23,9.80
2014,03,29,13,24,9.80
2014,03,29,13,25,9.70
2014,03,29,13,26,9.70
2014,03,29,13,27,9.70
2014,03,29,13,28,9.60
2014,03,29,13,29,9.60
2014,03,29,13,30,9.60
2014,03,29,13,31,9.60
2014,03,29,13,32,9.60
2014,03,29,13,33,9.60
2014,03,29,13,34,9.60
2014,03,29,13,35,9.60
2014,03,29,13,36,9.60
2014,03,29,13,37,9.50
2014,03,29,13,38,9.50
2014,03,29,13,39,9.40
2014,03,29,13,40,9.40
2014,03,29,13,41,9.30
2014,03,29,13,42,9.20
2014,03,29,13,43,9.20
2014,03,29,13,44,9.10
2014,03,29,13,45,9.10
2014,03,29,13,46,9.00
2014,03,29,13,47,9.00
2014,03,29,13,48,8.90
2014,03,29,13,49,8.90
2014,03,29,13,50,8.90
2014,03,29,13,51,8.90
2014,03,29,13,52,8.80
2014,03,29,13,53,8.80
2014,03,29,13,54,8.80
2014,03,29,13,55,8.80
2014,03,29,13,56,8.80
2014,03,29,13,57,8.80
2014,03,29,13,58,8.80
2014,03,29,13,59,8.80
2014,03,29,14,00,8.80
2014,03,29,14,01,8.80
2014,03,29,14,02,8.80
2014,03,29,14,03,8.80
2014,03,29,14,04,8.80
2014,03,29,14,05,8.80
2014,03,29,14,06,8.80
2014,03,29,14,07,8.80
2014,03,29,14,08,8.80
2014,03,29,14,09,8.80
2014,03,29,14,10,8.80
2014,03,29,14,11,8.80
2014,03,29,14,12,8.80
2014,03,29,14,13,8.80
2014,03,29,14,14,8.80
2014,03,29,14,15,8.80
2014,03,29,14,16,8.80
2014,03,29,14,17,8.80
2014,03,29,14,18,8.80
2014,03,29,14,19,8.80
2014,03,29,14,20,8.80
2014,03,29,14,21,8.70
2014,03,29,14,22,8.70
2014,03,29,14,23,8.70
2014,03,29,14,24,8.70
2014,03,29,14,25,8.70
2014,03,29,14,26,8.70
2014,03,29,14,27,8.70
2014,03,29,14,28,8.70
2014,03,29,14,29,8.70
2014,03,29,14,30,8.70
2014,03,29,14,31,8.70
2014,03,29,14,32,8.70
2014,03,29,14,33,8.70
2014,03,29,14,34,8.60
2014,03,29,14,35,8.60
2014,03,29,14,36,8.60
2014,03,29,14,37,8.60
2014,03,29,14,38,8.60
2014,03,29,14,39,8.70
2014,03,29,14,40,8.60
2014,03,29,14,41,8.60
2014,03,29,14,42,8.60
2014,03,29,14,43,8.60
2014,03,29,14,44,8.60
2014,03,29,14,45,8.60
2014,03,29,14,46,8.60
2014,03,29,14,47,8.60
2014,03,29,14,48,8.50
2014,03,29,14,49,8.50
2014,03,29,14,50,8.50
2014,03,29,14,51,8.50
2014,03,29,14,52,8.40
2014,03,29,14,53,8.40
2014,03,29,14,54,8.40
2014,03,29,14,55,8.30
2014,03,29,14,56,8.30
2014,03,29,14,57,8.30
2014,03,29,14,58,8.30
2014,03,29,14,59,8.30
2014,03,29,15,00,8.20
2014,03,29,15,01,8.20
2014,03,29,15,02,8.20
2014,03,29,15,03,8.20
2014,03,29,15,04,8.20
2014,03,29,15,05,8.10
2014,03,29,15,06,8.10
2014,03,29,15,07,8.10
2014,03,29,15,08,8.10
2014,03,29,15,09,8.10
2014,03,29,15,10,8.10
2014,03,29,15,11,8.10
2014,03,29,15,12,8.00
2014,03,29,15,13,8.00
2014,03,29,15,14,8.00
2014,03,29,15,15,8.00
2014,03,29,15,16,8.00
2014,03,29,15,17,8.00
2014,03,29,15,18,8.00
2014,03,29,15,19,7.90
2014,03,29,15,20,7.90
2014,03,29,15,21,7.90
2014,03,29,15,22,7.90
2014,03,29,15,23,7.90
2014,03,29,15,24,7.80
2014,03,29,15,25,7.80
2014,03,29,15,26,7.80
2014,03,29,15,27,7.80
2014,03,29,15,28,7.90
2014,03,29,15,29,7.90
2014,03,29,15,30,7.90
2014,03,29,15,31,7.90
2014,03,29,15,32,7.90
2014,03,29,15,33,8.00
2014,03,29,15,34,8.10
2014,03,29,15,35,8.10
2014,03,29,15,36,8.20
2014,03,29,15,37,8.20
2014,03,29,15,38,8.30
2014,03,29,15,39,8.30
2014,03,29,15,40,8.40
2014,03,29,15,41,8.40
2014,03,29,15,42,8.50
2014,03,29,15,43,8.50
2014,03,29,15,44,8.50
2014,03,29,15,45,8.60
2014,03,29,15,46,8.60
2014,03,29,15,47,8.60
2014,03,29,15,48,8.60
2014,03,29,15,49,8.60
2014,03,29,15,50,8.60
2014,03,29,15,51,8.60
2014,03,29,15,52,8.70
2014,03,29,15,53,8.70
2014,03,29,15,54,8.70
2014,03,29,15,55,8.70
2014,03,29,15,56,8.70
2014,03,29,15,57,8.70
2014,03,29,15,58,8.70
2014,03,29,15,59,8.70
2014,03,29,16,00,8.70
2014,03,29,16,01,8.70
2014,03,29,16,02,8.60
2014,03,29,16,03,8.60
2014,03,29,16,04,8.60
2014,03,29,16,05,8.60
2014,03,29,16,06,8.60
2014,03,29,16,07,8.60
2014,03,29,16,08,8.60
2014,03,29,16,09,8.60
2014,03,29,16,10,8.60
2014,03,29,16,11,8.60
2014,03,29,16,12,8.70
2014,03,29,16,13,8.70
2014,03,29,16,14,8.70
2014,03,29,16,15,8.70
2014,03,29,16,16,8.70
2014,03,29,16,17,8.70
2014,03,29,16,18,8.70
2014,03,29,16,19,8.80
2014,03,29,16,20,8.80
2014,03,29,16,21,8.80
2014,03,29,16,22,8.90
2014,03,29,16,23,8.90
2014,03,29,16,24,8.90
2014,03,29,16,25,8.90
2014,03,29,16,26,9.00
2014,03,29,16,27,9.00
2014,03,29,16,28,8.90
2014,03,29,16,29,8.90
2014,03,29,16,30,8.90
2014,03,29,16,31,8.90
2014,03,29,16,32,8.80
2014,03,29,16,33,8.80
2014,03,29,16,34,8.80
2014,03,29,16,35,8.80
2014,03,29,16,36,8.70
2014,03,29,16,37,8.70
2014,03,29,16,38,8.70
2014,03,29,16,39,8.70
2014,03,29,16,40,8.70
2014,03,29,16,41,8.60
2014,03,29,16,42,8.60
2014,03,29,16,43,8.60
2014,03,29,16,44,8.60
2014,03,29,16,45,8.50
2014,03,29,16,46,8.50
2014,03,29,16,47,8.50
2014,03,29,16,48,8.40
2014,03,29,16,49,8.40
2014,03,29,16,50,8.40
2014,03,29,16,51,8.40
2014,03,29,16,52,8.40
2014,03,29,16,53,8.30
2014,03,29,16,54,8.30
2014,03,29,16,55,8.30
2014,03,29,16,56,8.30
2014,03,29,16,57,8.30
2014,03,29,16,58,8.30
2014,03,29,16,59,8.30
2014,03,29,17,00,8.30
2014,03,29,17,01,8.30
2014,03,29,17,02,8.30
2014,03,29,17,03,8.30
2014,03,29,17,04,8.30
2014,03,29,17,05,8.20
2014,03,29,17,06,8.20
2014,03,29,17,07,8.20
2014,03,29,17,08,8.20
2014,03,29,17,09,8.20
2014,03,29,17,10,8.20
2014,03,29,17,11,8.20
2014,03,29,17,12,8.20
2014,03,29,17,13,8.20
2014,03,29,17,14,8.20
2014,03,29,17,15,8.20
2014,03,29,17,16,8.20
2014,03,29,17,17,8.20
2014,03,29,17,18,8.20
2014,03,29,17,19,8.20
2014,03,29,17,20,8.20
2014,03,29,17,21,8.20
2014,03,29,17,22,8.20
2014,03,29,17,23,8.20
2014,03,29,17,24,8.20
2014,03,29,17,25,8.20
2014,03,29,17,26,8.20
2014,03,29,17,27,8.20
2014,03,29,17,28,8.10
2014,03,29,17,29,8.10
2014,03,29,17,30,8.10
2014,03,29,17,31,8.10
2014,03,29,17,32,8.10
2014,03,29,17,33,8.10
2014,03,29,17,34,8.10
2014,03,29,17,35,8.10
2014,03,29,17,36,8.10
2014,03,29,17,37,8.10
2014,03,29,17,38,8.10
2014,03,29,17,39,8.00
2014,03,29,17,40,8.00
2014,03,29,17,41,8.00
2014,03,29,17,42,8.00
2014,03,29,17,43,8.00
2014,03,29,17,44,8.00
2014,03,29,17,45,8.00
2014,03,29,17,46,8.00
2014,03,29,17,47,8.00
2014,03,29,17,48,8.00
2014,03,29,17,49,7.90
2014,03,29,17,50,8.00
2014,03,29,17,51,7.90
2014,03,29,17,52,7.90
2014,03,29,17,53,7.90
2014,03,29,17,54,8.00
2014,03,29,17,55,7.90
2014,03,29,17,56,7.90
2014,03,29,17,57,7.90
2014,03,29,17,58,7.90
2014,03,29,17,59,7.90
2014,03,29,18,00,7.90
2014,03,29,18,01,7.90
2014,03,29,18,02,7.90
2014,03,29,18,03,7.90
2014,03,29,18,04,7.90
2014,03,29,18,05,7.90
2014,03,29,18,06,7.90